Weather Roundup
Issued by NWS Springfield, MO

Home | Current Version | Previous Version | Text Only | Print | Product List | Glossary On
Versions: 1 2 3 4 5 6 7 8 9 10 11 12 13 14 15 16 17 18 19 20 21 22 23 24 25 26 27 28 29 30 31 32 33 34 35 36 37 38 39 40 41 42 43 44 45 46 47 48 49 50
000
NZUS99 KSGF 240507
HRRSGF

HOURLY WEATHER
NATIONAL WEATHER SERVICE SPRINGFIELD MO
1200 AM CDT THU AUG 24 2017

......SGF CWA......

CITY           SKY/WX    TMP DP  RH WIND       PRES   REMARKS
SPRINGFIELD    CLEAR     65  56  72 E6        30.07S
JOPLIN         CLEAR     64  59  83 E3        30.07R
WEST PLAINS    CLEAR     61  55  81 CALM      30.08S
ROLLA          CLEAR     60  54  80 E3        30.09S
OSAGE BEACH    CLEAR     59  58  96 CALM      30.08S
BRANSON        CLEAR     64  55  72 CALM      30.08R

......SURROUNDING SGF CWA......

CITY           SKY/WX    TMP DP  RH WIND       PRES   REMARKS
CHANUTE        CLEAR     64  56  75 E3        30.07R
PARSONS        CLEAR     61  56  83 CALM      30.07R
COFFEYVILLE    CLEAR     61  57  87 NE3       30.05R
EMPORIA        CLEAR     63  56  78 SE7       30.07R
GROVE OK       CLEAR     63  61  94 CALM      30.06R
ROGERS AR      CLEAR     66  56  70 E6        30.07S
HARRISON AR    CLEAR     62  58  86 CALM      30.07S
NEAR YELLVILLE CLEAR     64  54  68 CALM      30.03R

......KANSAS AND MISSOURI......

CITY           SKY/WX    TMP DP  RH WIND       PRES   REMARKS
KANSAS CTY INT CLEAR     62  57  83 S7        30.07R
DOWNTOWN KC    CLEAR     71  58  63 SE7       30.06R
COLUMBIA       CLEAR     62  56  80 SE3       30.07S
SEDALIA        CLEAR     64  61  90 S6        30.08S
ST JOSEPH      CLEAR     60  60 100 SW3       30.06R
ST LOUIS       CLEAR     67  57  70 CALM      30.06F
SPIRIT OF STL  CLEAR     59  59 100 SW3       30.05F
KIRKSVILLE     CLEAR     58  55  90 CALM      30.07S
WICHITA        CLEAR     66  56  70 SE7       30.06S
TOPEKA         CLEAR     64  62  93 CALM      30.06R
OLATHE         CLEAR     64  59  83 CALM      30.07S

......TENNESSEE......

CITY           SKY/WX    TMP DP  RH WIND       PRES   REMARKS
MEMPHIS        CLEAR     70  59  68 NE5       30.01S
NASHVILLE      MOCLDY    69  61  75 CALM      30.02R

......ARKANSAS.......

CITY           SKY/WX    TMP DP  RH WIND       PRES   REMARKS
FAYETTEVILLE   CLEAR     63  63 100 CALM      30.06R
FT SMITH       CLEAR     72  69  90 E6        30.01R
LITTLE ROCK    PTCLDY    70  66  87 NE6       30.01S

......OKLAHOMA.......

CITY           SKY/WX    TMP DP  RH WIND       PRES   REMARKS
TULSA          CLEAR     67  62  84 NW5       30.02R
PONCA CITY     CLEAR     67  54  63 E7        30.04S
MCALESTER      CLEAR     72  70  93 CALM      30.00R
OKLAHOMA CITY  PTCLDY    70  58  65 E9        30.03S

......IOWA............

CITY           SKY/WX    TMP DP  RH WIND       PRES   REMARKS
DES MOINES     CLOUDY    70  54  56 N5        30.08R
QUAD CITIES    CLEAR     59  54  83 CALM      30.05R

......ILLINOIS........

CITY           SKY/WX    TMP DP  RH WIND       PRES   REMARKS
QUINCY         CLEAR     65  53  65 CALM      30.06S
CHICAGO        PTCLDY    65  55  70 SW5       30.03S



USA.gov is the U.S. government's official web portal to all federal, state and local government web resources and services.